Theta_e
307 307 308 307 304 303 304 304 306 308 309 310 309 308 308 306 306 305 304 303 303 302 302 304 304 305 307 312 322 326 328 330 331 332 331 331 331 329 329 329 328 329 329 327
307 307 306 305 305 306 306 307 309 308 308 310 308 308 306 304 305 304 302 302 302 301 299 302 304 304 304 306 309 317 323 326 328 330 331 331 330 330 330 329 329 329 328 328
307 307 305 306 307 308 308 307 308 308 306 304 304 304 303 304 303 302 301 300 302 301 302 302 304 306 306 305 305 307 311 318 323 327 329 330 330 330 329 329 329 329 329 329
306 306 305 305 307 306 309 306 306 307 307 307 304 304 304 303 305 304 304 303 303 303 303 303 303 305 307 308 307 306 306 309 316 322 327 329 329 329 329 329 329 328 328 328
307 307 307 307 307 306 307 306 306 306 307 307 307 305 304 301 306 306 305 305 304 303 302 303 304 305 306 308 309 310 310 309 311 316 322 326 328 328 329 329 329 329 328 328
308 307 307 307 306 307 305 305 304 304 303 305 305 303 303 303 306 308 306 304 304 303 303 303 304 305 305 307 308 309 309 312 315 317 319 323 325 326 327 328 328 329 329 328
310 309 309 307 308 307 305 305 306 308 307 306 303 304 303 304 304 307 306 305 304 302 302 302 302 303 304 305 306 307 308 307 308 310 315 320 323 323 322 323 323 324 324 325
310 310 309 308 308 309 305 305 307 306 306 305 305 308 305 303 303 305 304 304 303 302 301 301 302 302 303 304 306 306 306 306 306 307 307 308 308 310 312 315 317 319 319 320
307 307 308 308 307 308 307 306 303 305 293 304 306 304 305 306 306 305 305 304 304 302 302 301 302 302 302 303 303 304 305 305 306 306 306 306 306 307 307 308 308 309 310 311
307 310 308 308 308 307 306 304 308 304 304 305 303 305 306 309 308 306 306 304 303 302 302 301 301 302 303 303 303 304 304 303 303 304 305 305 305 306 306 306 306 306 307 307
307 311 310 309 309 308 307 307 306 306 306 305 305 306 300 309 306 305 305 303 302 303 302 301 301 302 302 303 303 303 304 304 304 304 304 304 304 304 304 303 303 304 304 305
309 310 313 310 307 306 307 307 306 307 307 304 306 308 306 306 304 305 305 303 303 302 301 300 301 301 301 302 302 302 302 302 302 302 303 304 304 304 304 303 302 301 301 301
309 310 308 311 310 307 307 306 305 305 305 305 307 306 304 304 305 305 304 304 303 302 301 300 300 300 300 300 300 300 299 299 299 299 300 300 300 301 301 302 303 302 302 302
310 308 309 310 310 308 310 308 305 308 310 307 309 307 305 305 306 305 304 303 302 301 300 299 299 299 299 299 299 298 298 297 297 297 297 298 298 298 299 299 300 300 301 301
310 310 311 311 311 309 309 309 306 308 308 309 309 308 309 307 306 306 304 302 301 300 299 298 298 298 298 298 297 296 296 295 295 295 295 295 295 296 296 297 297 298 298 298
310 313 311 312 311 310 313 310 308 308 307 311 305 308 306 306 303 304 303 301 300 299 298 297 297 297 297 296 296 295 295 295 294 294 294 294 294 294 294 294 294 294 294 295
312 312 311 309 310 311 315 311 310 309 308 309 311 309 305 305 305 304 301 300 299 297 296 295 295 295 295 295 294 294 294 294 294 294 294 294 294 294 294 294 294 293 293 293
310 310 311 307 310 319 309 299 306 309 308 307 306 306 307 307 304 302 300 299 297 294 294 294 294 294 294 293 293 293 293 293 293 293 294 293 293 293 293 293 293 292 291 290
308 306 303 309 309 307 304 300 306 310 309 306 305 304 302 300 299 300 298 296 294 293 294 294 294 293 293 293 293 292 292 292 292 292 292 292 291 291 291 291 291 291 289 290
305 306 308 301 311 311 305 298 297 300 303 300 304 303 300 298 301 298 297 295 295 294 293 292 293 293 292 292 291 291 291 291 290 290 289 289 289 289 288 288 288 288 288 288
307 306 308 305 308 300 298 295 296 305 303 294 300 300 298 298 297 295 294 294 295 294 292 292 292 292 291 290 288 288 288 287 286 286 286 287 287 287 286 286 286 287 287 287
308 307 308 299 305 307 294 295 300 298 296 296 297 297 297 295 295 295 293 291 292 292 291 290 290 289 288 286 284 284 284 283 283 283 284 284 284 283 283 283 284 285 285 285
303 303 304 304 305 297 293 296 295 297 298 297 296 295 295 293 292 290 290 290 290 290 289 288 285 284 283 282 281 280 281 280 280 280 281 282 282 282 281 281 281 281 281 282
295 294 300 300 297 297 294 294 294 295 296 294 293 291 291 291 289 289 288 288 288 288 285 282 280 279 279 279 278 277 277 276 276 276 277 277 278 279 279 280 282 282 280 280
295 295 294 293 293 294 294 294 295 294 292 290 290 290 290 289 289 288 287 285 283 281 279 277 276 276 276 275 275 275 274 273 273 273 273 274 274 275 276 277 279 281 282 281
291 294 297 298 294 296 296 293 292 291 291 289 289 288 288 289 287 285 283 280 278 276 275 274 274 273 273 273 273 274 272 271 271 271 271 271 271 272 273 275 276 279 282 283
Wind_Speed
3 4 7 10 4 4 7 5 5 2 1 1 3 5 10 6 5 8 7 7 8 8 8 10 10 12 16 22 29 31 31 32 32 32 29 28 31 30 30 29 29 29 29 29
5 4 6 8 6 7 5 5 3 2 3 2 2 7 8 6 3 4 6 6 7 7 7 10 9 5 6 14 19 25 30 30 31 31 26 23 25 28 30 31 32 31 31 30
6 2 9 6 4 7 1 6 4 4 2 3 3 6 5 2 3 6 7 4 5 6 6 7 15 17 13 4 6 13 18 24 28 29 28 25 21 22 23 29 30 33 33 33
4 3 7 8 5 5 5 4 6 7 4 2 3 3 4 4 4 7 8 8 7 7 5 7 13 20 21 19 13 4 5 11 17 21 27 27 22 23 26 25 27 29 31 32
5 7 7 4 5 5 3 5 6 4 4 4 2 4 6 3 5 5 7 7 7 6 6 7 14 22 25 26 25 20 15 6 4 11 19 25 26 25 26 26 26 27 28 30
3 1 3 4 4 3 9 7 8 5 3 0 1 4 5 1 3 2 2 4 4 6 6 9 15 24 27 27 29 28 25 21 13 4 5 14 18 21 22 23 23 26 28 30
1 2 1 4 8 5 4 5 3 2 2 4 3 3 6 1 1 4 5 4 4 5 7 9 16 21 27 28 26 26 26 26 21 15 9 2 6 11 15 17 19 21 24 26
6 3 7 3 5 8 6 6 5 7 4 2 2 5 4 1 2 4 3 5 6 8 7 8 15 21 26 30 29 28 28 27 24 21 17 13 9 6 7 11 13 17 19 22
5 3 1 2 3 4 6 5 5 7 2 3 3 4 3 1 6 5 5 5 7 7 7 7 16 22 25 27 28 28 28 28 28 26 23 20 17 15 13 11 10 12 13 16
7 4 2 0 2 3 4 7 4 2 4 3 3 4 5 7 9 7 6 6 6 5 7 7 15 21 25 26 26 28 29 29 28 27 25 23 21 19 18 16 15 14 14 15
5 4 1 3 5 8 3 3 3 5 4 5 3 6 5 13 9 9 7 6 7 6 5 5 13 19 22 24 25 26 28 28 28 27 27 25 24 23 21 20 19 18 17 16
4 5 4 6 1 1 1 6 6 5 5 1 3 5 3 11 9 8 7 6 6 6 6 8 13 16 18 20 22 23 24 25 24 23 23 22 22 22 24 25 24 23 22 20
7 3 3 4 3 2 5 5 3 4 3 6 6 4 2 4 6 4 7 6 5 5 6 6 11 13 13 14 16 18 20 21 21 21 21 21 22 23 24 23 24 25 26 26
5 4 9 12 4 7 6 5 6 5 3 5 7 7 8 8 8 6 6 5 6 5 5 4 7 11 12 13 14 15 17 19 21 21 22 23 24 25 25 25 25 25 26 26
4 6 3 2 2 2 5 9 11 11 15 8 11 11 23 19 14 11 7 7 7 6 5 4 3 6 9 11 13 14 15 18 20 22 22 23 24 26 26 27 27 26 26 25
2 4 3 5 2 4 3 5 15 17 5 1 7 5 4 12 7 7 9 9 7 7 5 4 3 4 7 9 12 14 17 19 21 24 27 28 30 32 32 33 33 31 30 29
4 6 4 4 4 2 5 13 12 6 4 9 10 6 6 7 12 12 11 9 8 7 7 5 4 5 6 10 12 16 19 22 26 29 31 32 34 35 35 35 36 35 35 33
5 5 2 3 3 9 3 2 5 6 7 6 5 6 10 12 5 7 9 10 9 7 5 4 4 6 9 13 16 19 23 25 28 30 32 33 35 37 37 37 36 36 36 35
4 4 3 4 3 5 2 5 7 9 8 9 8 7 6 7 5 2 5 5 7 7 8 5 3 6 10 14 17 20 22 25 27 28 30 33 35 36 35 36 36 35 34 35
4 4 3 3 4 7 5 3 4 4 4 7 11 13 9 7 5 4 8 7 10 11 8 5 3 6 10 13 14 17 19 22 24 26 29 31 32 32 33 33 33 33 32 34
5 3 4 4 2 7 6 5 4 7 6 3 8 11 10 6 3 6 9 8 10 9 6 3 4 7 10 12 15 17 18 21 22 26 29 31 33 34 34 33 32 31 31 31
9 7 4 3 3 8 8 4 9 3 3 6 6 6 8 7 7 9 7 7 7 5 4 4 6 8 11 15 17 18 22 23 26 29 31 32 32 32 33 35 36 31 28 29
2 5 6 7 6 1 5 1 3 5 6 5 7 6 10 9 6 7 5 4 4 4 3 6 9 12 16 17 17 20 24 26 29 31 33 34 33 33 30 26 29 27 25 21
3 2 3 4 4 2 4 2 4 4 5 7 7 9 8 8 8 6 5 5 4 4 3 6 12 15 19 20 19 20 23 24 27 31 33 35 35 35 33 25 23 26 22 23
3 7 6 2 1 4 1 4 6 6 8 10 7 6 7 8 7 6 5 7 7 2 3 12 13 15 20 21 23 23 23 24 29 32 32 31 28 27 30 30 25 25 25 24
5 6 5 5 9 5 7 9 8 9 8 10 8 6 4 6 7 7 6 6 4 5 9 12 15 19 22 23 25 25 24 25 26 31 28 27 29 28 26 27 31 24 24 23
Wind_Direction
32 105 181 190 156 123 129 118 136 158 38 207 214 267 280 281 288 303 308 303 303 298 308 314 303 267 243 236 234 231 231 232 229 225 217 219 224 228 234 237 242 242 243 244
56 205 191 121 125 114 114 119 136 77 51 146 7 281 271 324 312 333 315 324 322 326 341 5 18 12 242 234 232 234 235 235 233 228 218 217 226 231 235 241 245 248 249 249
152 226 136 126 127 118 109 146 173 146 115 64 329 312 337 12 23 22 26 15 8 357 17 16 41 50 52 54 242 239 239 239 238 235 230 227 230 234 239 241 245 249 252 253
147 114 139 126 157 134 152 168 125 121 102 189 1 268 313 327 41 34 22 22 8 12 20 34 38 47 50 50 56 65 230 232 235 237 233 229 225 231 237 239 250 253 256 257
199 159 140 140 188 154 174 118 115 98 97 98 335 89 269 316 52 20 21 19 22 23 31 44 54 59 58 58 58 63 69 81 209 227 233 238 237 240 247 247 246 249 255 259
127 108 120 140 67 66 151 83 55 52 88 92 198 140 280 214 164 114 41 41 32 32 46 55 64 63 59 59 61 63 64 63 64 87 214 239 252 259 260 258 258 260 259 256
80 94 67 130 84 11 86 98 48 13 357 215 4 109 239 233 104 150 136 84 40 38 50 43 39 42 51 53 56 59 59 57 54 57 56 8 271 268 273 279 279 278 277 272
151 192 163 178 173 172 182 165 157 190 188 224 67 222 241 216 92 90 83 108 72 55 45 44 40 50 54 56 57 59 59 57 53 51 49 46 35 0 325 306 294 288 286 285
133 194 91 123 156 155 183 193 143 104 29 74 206 277 311 104 121 130 128 97 78 73 61 54 50 56 59 61 58 57 57 55 52 51 48 44 36 29 19 8 344 322 308 299
195 109 29 202 128 66 160 158 80 12 132 223 262 258 215 181 176 172 143 112 92 77 63 52 48 55 62 61 59 56 52 49 45 44 41 35 32 31 25 17 4 347 331 318
135 103 12 127 215 166 126 181 61 121 140 163 160 250 214 178 166 160 158 135 124 106 93 79 64 63 61 58 52 48 44 40 37 35 30 27 24 23 20 15 6 354 342 329
197 115 153 189 275 296 169 182 162 144 219 260 143 269 162 149 163 157 142 129 123 109 103 87 74 64 56 50 45 41 37 33 28 26 23 20 16 15 12 8 3 357 351 343
182 170 85 11 350 360 235 169 153 108 84 195 139 248 31 102 142 168 145 135 118 112 91 77 66 59 53 45 39 36 31 27 22 19 16 13 11 8 5 0 354 350 346 343
100 143 182 204 182 134 190 182 175 149 175 164 220 152 189 198 183 179 157 141 122 101 87 73 57 49 43 39 33 30 25 20 16 14 11 8 6 2 359 354 349 345 340 336
140 178 129 75 43 165 171 173 176 197 218 188 220 179 190 191 186 183 164 149 142 129 100 83 76 63 49 39 32 26 19 13 9 8 7 5 0 358 354 351 347 343 339 334
14 145 113 196 178 12 210 193 195 210 193 66 145 220 216 171 143 154 169 159 155 151 145 133 120 88 60 37 21 14 8 4 2 2 360 357 354 351 350 347 344 342 340 337
128 131 155 217 161 134 287 217 191 182 186 170 197 190 140 140 165 176 172 166 165 174 172 150 123 87 55 30 14 6 0 356 355 355 351 349 345 343 341 339 338 337 335 333
132 124 94 137 123 211 271 357 203 174 175 180 109 164 166 159 141 144 162 161 164 155 143 124 79 46 28 15 7 358 356 352 348 345 340 338 336 335 334 333 332 331 331 329
149 121 120 166 188 301 265 198 159 173 231 199 155 149 125 109 103 138 153 146 152 150 141 127 80 30 15 7 357 349 345 339 337 333 329 328 328 326 326 325 326 325 325 323
125 104 118 156 171 202 240 174 188 143 280 177 158 169 152 133 162 209 167 147 147 151 147 130 74 18 4 357 346 339 333 327 327 324 321 319 320 319 319 320 320 318 317 315
160 128 167 170 170 284 236 199 190 139 234 157 148 156 151 172 176 144 142 144 151 158 143 97 33 3 353 345 338 329 323 324 322 318 319 318 320 320 318 316 315 315 315 313
165 155 179 111 134 257 156 82 170 192 70 135 123 130 135 130 121 135 136 139 142 127 87 39 1 342 334 335 338 333 326 328 322 318 317 316 317 316 314 315 314 314 315 312
224 182 171 183 207 358 184 168 151 150 139 156 129 142 139 136 142 146 134 103 68 79 47 1 352 337 333 341 341 329 323 321 318 314 313 312 312 312 314 304 304 304 310 302
274 244 147 101 214 201 175 96 153 165 131 131 129 134 136 137 145 151 150 143 136 116 26 342 334 337 331 337 331 328 326 324 317 315 315 316 315 315 315 307 299 296 293 296
187 144 154 295 322 83 236 217 167 126 122 117 121 138 145 140 148 145 142 140 141 140 344 344 347 336 327 328 326 329 330 325 320 317 316 315 313 310 306 304 296 291 283 283
189 168 175 217 178 161 197 184 165 144 163 158 141 133 125 137 141 133 131 131 109 357 343 340 333 326 325 326 324 326 328 324 321 316 316 313 311 308 302 300 302 296 282 286